QPF
0.05 0.08 0.08 0.07 0.07 0.07 0.08 0.08 0.09 0.08 0.08 0.09 0.08 0.07 0.06 0.06 0.07 0.05 0.06 0.04 0.02 0.01 0.01 0.00 0.01 0.01 0.01 0.02 0.04 0.05 0.05 0.04 0.03 0.03 0.03 0.03 0.03 0.03
0.05 0.06 0.07 0.07 0.06 0.07 0.09 0.09 0.11 0.10 0.09 0.09 0.08 0.05 0.05 0.05 0.04 0.05 0.06 0.05 0.03 0.02 0.01 0.01 0.01 0.01 0.01 0.02 0.01 0.02 0.03 0.03 0.03 0.03 0.03 0.03 0.03 0.03
0.03 0.03 0.03 0.04 0.05 0.05 0.07 0.08 0.10 0.12 0.10 0.10 0.09 0.07 0.06 0.05 0.05 0.06 0.05 0.05 0.04 0.03 0.03 0.02 0.01 0.02 0.02 0.02 0.02 0.02 0.03 0.03 0.03 0.03 0.03 0.03 0.02 0.02
0.04 0.03 0.03 0.03 0.04 0.03 0.04 0.04 0.05 0.08 0.09 0.09 0.09 0.10 0.11 0.10 0.10 0.09 0.07 0.06 0.05 0.05 0.05 0.03 0.03 0.02 0.02 0.02 0.02 0.03 0.03 0.03 0.03 0.03 0.03 0.02 0.02 0.02
0.06 0.05 0.04 0.04 0.03 0.03 0.03 0.03 0.03 0.04 0.07 0.08 0.08 0.10 0.11 0.11 0.11 0.11 0.11 0.09 0.07 0.06 0.06 0.05 0.04 0.04 0.04 0.03 0.03 0.03 0.03 0.03 0.03 0.03 0.03 0.02 0.02 0.01
0.04 0.05 0.05 0.04 0.04 0.04 0.04 0.04 0.05 0.07 0.09 0.09 0.10 0.12 0.13 0.13 0.13 0.11 0.10 0.09 0.09 0.07 0.07 0.06 0.06 0.05 0.04 0.05 0.05 0.06 0.07 0.09 0.09 0.08 0.05 0.03 0.02 0.01
0.02 0.02 0.03 0.03 0.03 0.04 0.03 0.05 0.07 0.08 0.08 0.07 0.07 0.08 0.08 0.10 0.12 0.13 0.13 0.13 0.11 0.09 0.08 0.07 0.07 0.07 0.06 0.06 0.07 0.07 0.06 0.06 0.05 0.04 0.04 0.03 0.03 0.02
0.03 0.03 0.03 0.02 0.02 0.02 0.02 0.03 0.05 0.06 0.06 0.06 0.06 0.07 0.08 0.09 0.10 0.10 0.10 0.11 0.10 0.08 0.07 0.08 0.08 0.08 0.09 0.08 0.06 0.06 0.04 0.04 0.03 0.03 0.02 0.02 0.02 0.02
0.05 0.05 0.04 0.03 0.03 0.02 0.03 0.03 0.03 0.04 0.04 0.05 0.06 0.07 0.09 0.10 0.11 0.10 0.09 0.07 0.07 0.07 0.06 0.06 0.06 0.06 0.06 0.09 0.10 0.09 0.06 0.03 0.03 0.03 0.02 0.01 0.01 0.01
0.05 0.05 0.05 0.05 0.04 0.04 0.04 0.04 0.03 0.03 0.04 0.04 0.05 0.05 0.06 0.06 0.06 0.07 0.07 0.07 0.06 0.05 0.04 0.03 0.03 0.03 0.03 0.04 0.06 0.08 0.08 0.06 0.04 0.03 0.02 0.02 0.01 0.01
0.03 0.04 0.04 0.04 0.03 0.03 0.03 0.04 0.03 0.04 0.04 0.03 0.03 0.02 0.02 0.02 0.03 0.03 0.04 0.05 0.04 0.03 0.03 0.02 0.02 0.02 0.02 0.02 0.02 0.05 0.07 0.08 0.08 0.06 0.04 0.03 0.03 0.03
0.03 0.03 0.02 0.02 0.02 0.02 0.02 0.03 0.03 0.03 0.03 0.03 0.02 0.02 0.02 0.03 0.02 0.02 0.03 0.03 0.03 0.03 0.03 0.03 0.02 0.03 0.03 0.02 0.02 0.02 0.04 0.06 0.07 0.07 0.06 0.04 0.04 0.04
0.02 0.02 0.02 0.01 0.01 0.01 0.01 0.02 0.01 0.02 0.02 0.03 0.03 0.02 0.03 0.03 0.04 0.03 0.04 0.04 0.04 0.03 0.04 0.04 0.03 0.03 0.03 0.03 0.02 0.02 0.03 0.03 0.03 0.03 0.03 0.04 0.05 0.05
0.02 0.01 0.01 0.01 0.01 0.00 0.00 0.00 0.01 0.01 0.02 0.03 0.03 0.03 0.02 0.02 0.03 0.04 0.04 0.04 0.04 0.04 0.03 0.04 0.04 0.03 0.03 0.04 0.03 0.03 0.03 0.03 0.04 0.04 0.04 0.04 0.03 0.05
0.01 0.01 0.01 0.01 0.01 0.00 0.00 0.01 0.01 0.01 0.02 0.03 0.03 0.03 0.03 0.03 0.03 0.03 0.04 0.05 0.05 0.03 0.03 0.03 0.03 0.03 0.04 0.03 0.03 0.03 0.04 0.04 0.04 0.04 0.05 0.06 0.05 0.05
0.01 0.01 0.01 0.01 0.01 0.01 0.01 0.02 0.02 0.02 0.02 0.03 0.04 0.03 0.04 0.04 0.03 0.02 0.02 0.03 0.04 0.04 0.03 0.04 0.04 0.04 0.04 0.04 0.04 0.04 0.04 0.04 0.04 0.04 0.05 0.06 0.05 0.06
0.03 0.03 0.02 0.02 0.02 0.02 0.03 0.03 0.03 0.02 0.02 0.02 0.02 0.03 0.03 0.03 0.03 0.02 0.03 0.03 0.03 0.03 0.03 0.04 0.05 0.05 0.05 0.05 0.05 0.04 0.05 0.05 0.04 0.04 0.06 0.06 0.06 0.05
0.04 0.03 0.03 0.03 0.03 0.04 0.03 0.03 0.02 0.02 0.02 0.02 0.02 0.02 0.02 0.03 0.03 0.03 0.03 0.04 0.04 0.04 0.04 0.04 0.04 0.04 0.03 0.03 0.04 0.03 0.04 0.05 0.06 0.06 0.05 0.06 0.06 0.05
0.01 0.01 0.02 0.03 0.03 0.03 0.03 0.03 0.03 0.02 0.02 0.02 0.02 0.02 0.02 0.02 0.03 0.04 0.04 0.04 0.04 0.05 0.05 0.05 0.06 0.06 0.06 0.05 0.05 0.05 0.05 0.06 0.07 0.06 0.05 0.05 0.06 0.07
0.01 0.01 0.01 0.02 0.03 0.03 0.03 0.03 0.03 0.03 0.02 0.02 0.02 0.03 0.03 0.03 0.03 0.04 0.04 0.05 0.06 0.06 0.06 0.07 0.08 0.09 0.10 0.09 0.08 0.07 0.06 0.05 0.06 0.06 0.05 0.05 0.04 0.06
0.01 0.01 0.01 0.01 0.01 0.02 0.02 0.03 0.04 0.04 0.04 0.04 0.03 0.04 0.04 0.04 0.05 0.05 0.06 0.06 0.06 0.07 0.07 0.06 0.07 0.08 0.09 0.09 0.08 0.06 0.05 0.05 0.05 0.07 0.06 0.05 0.04 0.04
0.00 0.01 0.01 0.01 0.01 0.01 0.02 0.03 0.03 0.04 0.04 0.04 0.04 0.04 0.05 0.06 0.07 0.08 0.09 0.09 0.08 0.07 0.07 0.07 0.08 0.09 0.08 0.08 0.08 0.06 0.06 0.04 0.04 0.04 0.05 0.05 0.05 0.04
0.01 0.01 0.01 0.01 0.01 0.01 0.02 0.03 0.03 0.04 0.04 0.04 0.05 0.05 0.05 0.06 0.07 0.08 0.08 0.08 0.08 0.07 0.07 0.08 0.08 0.08 0.08 0.09 0.09 0.08 0.07 0.06 0.05 0.05 0.04 0.04 0.04 0.03
MSLP
1011.26 1011.68 1012.09 1012.46 1012.79 1013.05 1013.24 1013.37 1013.44 1013.47 1013.48 1013.50 1013.54 1013.62 1013.75 1013.93 1014.17 1014.45 1014.77 1015.12 1015.47 1015.80 1016.12 1016.38 1016.60 1016.76 1016.87 1016.93 1016.96 1016.96 1016.93 1016.89 1016.82 1016.71 1016.55 1016.34 1016.08 1015.78
1010.53 1010.98 1011.42 1011.83 1012.18 1012.48 1012.71 1012.88 1013.00 1013.08 1013.15 1013.21 1013.29 1013.39 1013.53 1013.70 1013.90 1014.14 1014.39 1014.67 1014.95 1015.22 1015.48 1015.73 1015.94 1016.13 1016.28 1016.41 1016.51 1016.58 1016.63 1016.63 1016.59 1016.49 1016.32 1016.08 1015.76 1015.39
1009.78 1010.27 1010.74 1011.18 1011.57 1011.91 1012.18 1012.40 1012.57 1012.70 1012.82 1012.93 1013.05 1013.17 1013.31 1013.47 1013.64 1013.81 1014.00 1014.19 1014.39 1014.59 1014.80 1015.01 1015.21 1015.42 1015.62 1015.81 1015.99 1016.15 1016.27 1016.35 1016.36 1016.29 1016.13 1015.88 1015.53 1015.12
1009.07 1009.58 1010.08 1010.56 1010.99 1011.37 1011.69 1011.94 1012.15 1012.33 1012.49 1012.63 1012.78 1012.92 1013.07 1013.21 1013.35 1013.48 1013.60 1013.72 1013.84 1013.97 1014.11 1014.28 1014.47 1014.68 1014.91 1015.15 1015.39 1015.63 1015.83 1015.98 1016.06 1016.05 1015.93 1015.70 1015.37 1014.96
1008.45 1008.98 1009.51 1010.02 1010.49 1010.90 1011.24 1011.52 1011.75 1011.95 1012.13 1012.30 1012.46 1012.62 1012.77 1012.91 1013.02 1013.12 1013.20 1013.26 1013.32 1013.39 1013.47 1013.59 1013.74 1013.93 1014.17 1014.43 1014.71 1015.00 1015.26 1015.48 1015.64 1015.70 1015.65 1015.49 1015.21 1014.85
1007.96 1008.51 1009.07 1009.60 1010.09 1010.51 1010.86 1011.14 1011.37 1011.56 1011.74 1011.91 1012.08 1012.24 1012.40 1012.55 1012.66 1012.75 1012.81 1012.84 1012.86 1012.87 1012.90 1012.96 1013.06 1013.21 1013.41 1013.66 1013.94 1014.24 1014.54 1014.81 1015.03 1015.18 1015.22 1015.16 1014.99 1014.73
1007.65 1008.21 1008.78 1009.33 1009.81 1010.23 1010.56 1010.82 1011.02 1011.18 1011.34 1011.49 1011.65 1011.82 1011.99 1012.15 1012.28 1012.39 1012.45 1012.47 1012.46 1012.44 1012.42 1012.41 1012.44 1012.52 1012.66 1012.84 1013.08 1013.36 1013.66 1013.96 1014.23 1014.46 1014.61 1014.68 1014.66 1014.55
1007.52 1008.10 1008.67 1009.21 1009.69 1010.08 1010.37 1010.58 1010.73 1010.85 1010.95 1011.07 1011.21 1011.38 1011.56 1011.75 1011.91 1012.05 1012.13 1012.17 1012.15 1012.10 1012.04 1011.97 1011.92 1011.90 1011.94 1012.04 1012.19 1012.41 1012.67 1012.97 1013.27 1013.57 1013.83 1014.04 1014.18 1014.24
1007.58 1008.16 1008.74 1009.27 1009.72 1010.06 1010.30 1010.46 1010.54 1010.59 1010.64 1010.72 1010.84 1011.00 1011.19 1011.40 1011.60 1011.77 1011.89 1011.94 1011.94 1011.87 1011.76 1011.63 1011.50 1011.38 1011.31 1011.30 1011.35 1011.48 1011.68 1011.94 1012.25 1012.59 1012.94 1013.27 1013.56 1013.81
1007.82 1008.41 1008.97 1009.48 1009.89 1010.19 1010.37 1010.46 1010.48 1010.47 1010.46 1010.50 1010.58 1010.73 1010.93 1011.16 1011.38 1011.59 1011.74 1011.82 1011.82 1011.75 1011.61 1011.42 1011.21 1011.01 1010.83 1010.70 1010.65 1010.68 1010.80 1011.00 1011.29 1011.65 1012.04 1012.46 1012.87 1013.26
1008.22 1008.79 1009.33 1009.81 1010.19 1010.44 1010.57 1010.60 1010.57 1010.50 1010.45 1010.44 1010.50 1010.63 1010.83 1011.06 1011.30 1011.52 1011.69 1011.79 1011.80 1011.72 1011.57 1011.34 1011.08 1010.81 1010.55 1010.33 1010.18 1010.12 1010.16 1010.29 1010.54 1010.87 1011.27 1011.72 1012.19 1012.65
1008.73 1009.27 1009.79 1010.23 1010.56 1010.78 1010.87 1010.86 1010.79 1010.69 1010.61 1010.57 1010.61 1010.72 1010.90 1011.12 1011.36 1011.58 1011.75 1011.85 1011.86 1011.78 1011.61 1011.38 1011.09 1010.78 1010.48 1010.21 1010.00 1009.87 1009.83 1009.90 1010.08 1010.36 1010.72 1011.15 1011.61 1012.08
1009.31 1009.81 1010.27 1010.67 1010.97 1011.16 1011.23 1011.21 1011.12 1011.01 1010.92 1010.87 1010.89 1010.98 1011.13 1011.33 1011.54 1011.73 1011.88 1011.96 1011.97 1011.89 1011.72 1011.49 1011.22 1010.91 1010.61 1010.32 1010.09 1009.93 1009.84 1009.86 1009.97 1010.17 1010.45 1010.80 1011.18 1011.59
1009.91 1010.34 1010.75 1011.11 1011.38 1011.54 1011.61 1011.59 1011.52 1011.43 1011.34 1011.30 1011.31 1011.38 1011.49 1011.65 1011.81 1011.96 1012.06 1012.12 1012.10 1012.01 1011.86 1011.65 1011.41 1011.14 1010.88 1010.63 1010.41 1010.24 1010.14 1010.11 1010.15 1010.27 1010.45 1010.68 1010.94 1011.23
1010.48 1010.84 1011.19 1011.50 1011.74 1011.90 1011.97 1011.98 1011.95 1011.89 1011.84 1011.81 1011.82 1011.87 1011.95 1012.05 1012.15 1012.23 1012.27 1012.28 1012.23 1012.13 1011.99 1011.82 1011.62 1011.42 1011.21 1011.02 1010.85 1010.72 1010.62 1010.56 1010.55 1010.58 1010.64 1010.75 1010.87 1011.00
1010.99 1011.28 1011.57 1011.83 1012.05 1012.21 1012.32 1012.37 1012.38 1012.37 1012.36 1012.36 1012.38 1012.41 1012.45 1012.49 1012.52 1012.53 1012.51 1012.45 1012.36 1012.25 1012.11 1011.97 1011.82 1011.68 1011.55 1011.42 1011.32 1011.22 1011.14 1011.07 1011.01 1010.97 1010.93 1010.91 1010.88 1010.86
1011.46 1011.68 1011.91 1012.13 1012.34 1012.51 1012.65 1012.75 1012.82 1012.87 1012.91 1012.94 1012.97 1012.99 1012.99 1012.98 1012.94 1012.87 1012.77 1012.65 1012.51 1012.37 1012.23 1012.10 1011.99 1011.90 1011.82 1011.76 1011.70 1011.64 1011.57 1011.49 1011.40 1011.30 1011.19 1011.06 1010.91 1010.77
1011.90 1012.06 1012.25 1012.46 1012.66 1012.85 1013.02 1013.16 1013.29 1013.39 1013.48 1013.55 1013.58 1013.59 1013.57 1013.51 1013.40 1013.27 1013.10 1012.91 1012.72 1012.54 1012.38 1012.25 1012.15 1012.08 1012.02 1011.98 1011.95 1011.90 1011.83 1011.74 1011.62 1011.47 1011.30 1011.10 1010.87 1010.64
1012.36 1012.49 1012.66 1012.85 1013.05 1013.26 1013.46 1013.65 1013.82 1013.97 1014.10 1014.19 1014.24 1014.24 1014.19 1014.09 1013.94 1013.74 1013.52 1013.28 1013.04 1012.81 1012.62 1012.46 1012.34 1012.25 1012.18 1012.13 1012.07 1012.00 1011.91 1011.79 1011.63 1011.44 1011.22 1010.97 1010.70 1010.42
1012.89 1013.01 1013.17 1013.35 1013.56 1013.78 1014.01 1014.22 1014.43 1014.61 1014.76 1014.87 1014.93 1014.92 1014.86 1014.73 1014.54 1014.31 1014.04 1013.76 1013.48 1013.21 1012.97 1012.77 1012.60 1012.45 1012.33 1012.22 1012.11 1011.98 1011.83 1011.65 1011.44 1011.21 1010.95 1010.67 1010.38 1010.08
1013.51 1013.63 1013.79 1013.99 1014.20 1014.43 1014.66 1014.90 1015.12 1015.31 1015.47 1015.58 1015.64 1015.63 1015.55 1015.41 1015.20 1014.95 1014.65 1014.34 1014.03 1013.72 1013.44 1013.18 1012.95 1012.73 1012.53 1012.33 1012.12 1011.90 1011.66 1011.40 1011.13 1010.84 1010.53 1010.23 1009.92 1009.63
1014.21 1014.35 1014.52 1014.71 1014.92 1015.15 1015.39 1015.62 1015.84 1016.03 1016.18 1016.29 1016.34 1016.32 1016.23 1016.07 1015.86 1015.60 1015.30 1014.97 1014.64 1014.31 1013.98 1013.67 1013.37 1013.07 1012.77 1012.47 1012.15 1011.82 1011.47 1011.12 1010.76 1010.40 1010.05 1009.71 1009.39 1009.09
1014.93 1015.09 1015.26 1015.46 1015.67 1015.89 1016.11 1016.33 1016.53 1016.70 1016.84 1016.93 1016.95 1016.92 1016.82 1016.66 1016.44 1016.18 1015.88 1015.56 1015.22 1014.87 1014.52 1014.16 1013.80 1013.42 1013.03 1012.63 1012.20 1011.76 1011.31 1010.86 1010.41 1009.97 1009.56 1009.18 1008.83 1008.51
Thickness
5755 5754 5753 5752 5751 5750 5746 5742 5733 5726 5727 5732 5734 5736 5734 5731 5729 5726 5723 5721 5719 5717 5715 5712 5710 5707 5705 5703 5701 5699 5698 5696 5694 5693 5692 5691 5690 5689
5753 5751 5750 5750 5749 5748 5745 5743 5739 5732 5726 5729 5731 5732 5731 5730 5727 5724 5722 5720 5718 5715 5713 5710 5708 5705 5703 5701 5699 5697 5695 5693 5691 5690 5689 5688 5687 5687
5750 5748 5746 5746 5744 5744 5742 5740 5737 5733 5725 5726 5729 5729 5728 5725 5723 5721 5719 5717 5716 5714 5711 5708 5706 5703 5701 5699 5697 5695 5692 5690 5689 5687 5686 5685 5684 5684
5746 5744 5742 5742 5740 5739 5737 5736 5733 5731 5725 5721 5722 5723 5722 5721 5719 5717 5716 5715 5713 5712 5709 5706 5704 5701 5698 5696 5694 5692 5690 5688 5686 5684 5683 5682 5681 5680
5743 5741 5739 5737 5734 5734 5732 5730 5729 5728 5724 5719 5717 5718 5717 5716 5713 5712 5711 5710 5709 5707 5706 5703 5700 5698 5695 5692 5690 5688 5686 5684 5683 5681 5680 5679 5677 5676
5740 5738 5735 5733 5730 5729 5728 5725 5723 5720 5718 5715 5712 5711 5710 5709 5707 5703 5702 5702 5702 5702 5700 5698 5696 5694 5691 5689 5686 5684 5682 5680 5678 5677 5676 5675 5673 5672
5735 5734 5732 5729 5727 5724 5723 5720 5718 5714 5712 5709 5706 5704 5703 5700 5698 5697 5695 5695 5695 5695 5693 5692 5690 5688 5687 5685 5682 5680 5678 5676 5674 5673 5672 5670 5669 5667
5729 5728 5727 5725 5722 5719 5717 5715 5712 5709 5706 5703 5701 5698 5697 5695 5694 5692 5688 5686 5685 5689 5687 5686 5686 5684 5683 5681 5680 5677 5675 5673 5671 5669 5667 5666 5664 5663
5724 5722 5722 5720 5717 5714 5711 5709 5707 5705 5702 5699 5696 5693 5692 5691 5688 5685 5683 5681 5680 5683 5681 5679 5681 5679 5679 5679 5676 5674 5671 5669 5667 5665 5663 5661 5660 5658
5720 5717 5714 5712 5711 5708 5706 5704 5702 5700 5698 5695 5693 5691 5690 5688 5685 5682 5680 5678 5678 5678 5677 5673 5675 5674 5675 5673 5672 5670 5668 5666 5663 5661 5659 5656 5654 5653
5714 5712 5710 5706 5703 5701 5698 5697 5695 5693 5693 5691 5689 5687 5685 5682 5679 5675 5673 5670 5669 5670 5671 5668 5668 5668 5668 5667 5666 5665 5663 5661 5659 5657 5654 5652 5649 5647
5707 5705 5703 5700 5697 5693 5691 5689 5687 5686 5685 5684 5682 5680 5679 5677 5674 5671 5668 5664 5662 5661 5664 5661 5661 5659 5659 5661 5660 5657 5656 5655 5653 5651 5649 5647 5644 5641
5701 5699 5697 5693 5690 5687 5684 5683 5681 5679 5677 5676 5676 5675 5673 5671 5669 5666 5664 5661 5657 5656 5658 5656 5653 5652 5650 5651 5653 5651 5650 5648 5646 5644 5642 5641 5639 5637
5693 5693 5691 5687 5684 5681 5678 5677 5674 5671 5670 5669 5668 5667 5665 5664 5663 5661 5659 5657 5655 5653 5653 5651 5648 5646 5643 5642 5643 5644 5643 5642 5641 5639 5637 5635 5632 5631
5687 5685 5682 5679 5677 5675 5673 5670 5667 5665 5663 5661 5660 5659 5659 5658 5656 5654 5652 5651 5649 5648 5647 5646 5643 5641 5639 5637 5636 5637 5636 5636 5635 5633 5632 5630 5627 5625
5679 5677 5675 5673 5670 5669 5667 5664 5661 5659 5657 5654 5653 5652 5651 5649 5647 5645 5643 5641 5639 5640 5641 5640 5638 5636 5633 5632 5630 5630 5629 5628 5629 5627 5626 5625 5623 5621
5669 5669 5668 5666 5664 5662 5660 5658 5655 5653 5650 5647 5646 5643 5642 5640 5638 5637 5635 5633 5630 5630 5630 5631 5631 5630 5629 5627 5625 5624 5623 5622 5622 5620 5618 5617 5617 5615
5660 5661 5660 5658 5656 5654 5652 5650 5647 5645 5643 5640 5638 5636 5634 5632 5630 5629 5627 5624 5622 5622 5621 5621 5620 5619 5618 5619 5619 5617 5615 5614 5614 5613 5611 5609 5609 5609
5653 5654 5652 5650 5648 5646 5644 5641 5639 5637 5635 5633 5630 5628 5627 5625 5622 5620 5618 5616 5615 5614 5613 5612 5610 5609 5607 5607 5611 5610 5608 5607 5606 5605 5604 5603 5602 5601
5649 5647 5644 5642 5639 5637 5635 5632 5630 5628 5626 5624 5623 5621 5619 5616 5614 5612 5610 5607 5605 5604 5603 5603 5603 5602 5600 5600 5601 5602 5602 5600 5599 5597 5596 5595 5594 5593
5643 5640 5637 5634 5631 5628 5625 5623 5621 5619 5617 5615 5614 5612 5610 5608 5605 5603 5601 5598 5596 5595 5594 5595 5596 5596 5597 5595 5594 5594 5593 5593 5592 5590 5589 5586 5585 5583
5634 5631 5628 5625 5623 5620 5617 5614 5612 5610 5608 5606 5604 5602 5600 5598 5596 5593 5592 5590 5588 5586 5586 5587 5588 5587 5586 5585 5585 5586 5585 5583 5582 5582 5580 5580 5578 5577
5626 5623 5620 5617 5613 5610 5608 5605 5603 5601 5598 5596 5594 5592 5591 5588 5587 5585 5584 5582 5580 5578 5577 5577 5577 5577 5577 5577 5577 5577 5576 5575 5573 5572 5571 5571 5571 5570